This is the latest recevied weather packets stored in our database for station/object F4IVW-13. If no packets are shown the sender has not sent any weather packets the latest 10 day(s).
| Time | Temp. | Humidity | Pressure | Rain* | Wind** | Luminosity | Snow |
|---|---|---|---|---|---|---|---|
| 1777630054 | 21.11° C | 99% | 1021.6 hPa | 0 mm | - | 24 W/m² | - |
| 1777629740 | 20° C | 99% | 1021.5 hPa | 0 mm | - | 29 W/m² | - |
| 1777629420 | 20° C | 99% | 1021.5 hPa | 0 mm | - | 26 W/m² | - |
| 1777629103 | 19.44° C | 99% | 1021.7 hPa | 0 mm | - | 11 W/m² | - |
| 1777628786 | 19.44° C | 99% | 1021.7 hPa | 0 mm | - | 16 W/m² | - |
| 1777628476 | 20° C | 99% | 1021.7 hPa | 0 mm | - | 65 W/m² | - |
| 1777628150 | 19.44° C | 99% | 1021.8 hPa | 0 mm | - | 9 W/m² | - |
| 1777627833 | 18.89° C | 99% | 1021.8 hPa | 0 mm | - | 22 W/m² | - |
| 1777627516 | 18.89° C | 99% | 1021.7 hPa | 0 mm | - | 23 W/m² | - |
| 1777627200 | 18.89° C | 99% | 1021.7 hPa | 0 mm | - | 8 W/m² | - |
| 1777626883 | 18.89° C | 99% | 1021.7 hPa | 0 mm | - | 16 W/m² | - |
| 1777626574 | 19.44° C | 99% | 1021.7 hPa | 0 mm | - | 10 W/m² | - |
| 1777626246 | 20.56° C | 99% | 1021.7 hPa | 0 mm | - | 6 W/m² | - |
| 1777625929 | 20.56° C | 99% | 1021.7 hPa | 0 mm | - | 16 W/m² | - |
| 1777625613 | 18.89° C | 99% | 1021.7 hPa | 0 mm | - | 20 W/m² | - |
| 1777625296 | 17.78° C | 99% | 1021.7 hPa | 0 mm | - | 69 W/m² | - |
| 1777624978 | 17.22° C | 99% | 1021.7 hPa | 0.25 mm | - | 17 W/m² | - |
| 1777624669 | 17.22° C | 99% | 1021.8 hPa | 0.25 mm | - | 13 W/m² | - |
| 1777624343 | 17.22° C | 99% | 1021.8 hPa | 0.25 mm | - | 4 W/m² | - |
| 1777624025 | 17.22° C | 99% | 1021.7 hPa | 0.25 mm | - | 2 W/m² | - |
| 1777623706 | 17.78° C | 99% | 1021.7 hPa | 0.25 mm | - | 3 W/m² | - |
| 1777623389 | 18.33° C | 99% | 1021.7 hPa | 0.25 mm | - | 1 W/m² | - |
| 1777623072 | 17.78° C | 99% | 1021.6 hPa | 0.25 mm | - | 5 W/m² | - |
| 1777622764 | 17.78° C | 99% | 1021.5 hPa | 0 mm | - | 11 W/m² | - |
| 1777622435 | 17.78° C | 99% | 1021.5 hPa | 0 mm | - | 5 W/m² | - |
* Rain latest hour (hover to see other rain measurements)
** Current wind speed in m/s (hover to see current wind gust speed)